Weather WX

World > North America > United States > New York

Hancock, New York Regional Weather

Lat: 41.95N, Lon: 75.28W
Wx Zone: NYZ057
Warning FLW WEATHER ALERT - (More Info. Click Here) Warning
Feedback

Hancock, NY Regional Weather

Expires:201907162100;;745121
ASUS41 KBGM 162010
RWRBGM

REGIONAL WEATHER ROUNDUP
NATIONAL WEATHER SERVICE BINGHAMTON NY
400 PM EDT TUE JUL 16 2019

Note: "fair" indicates few or no clouds below 12,000 feet with no
significant weather and/or obstructions to visibility.

* = Station(s) that does not report precipitation, such as rain, 
snow, etc, also no thunder or fog.


NYZ009-015>018-022>025-036-037-044>046-055>057-062-162100
...Central New York...
  
CITY           SKY/WX    TMP DP  RH WIND       PRES   REMARKS
Binghamton     TSTM      77  69  76 N6        30.05R                  
Cortland       FAIR      82  64  54 NE3       30.03R                  
Dansville      LGT RAIN  81  69  67 N10       30.00R                  
Elmira         FAIR      86  75  69 E7        29.99F HX  95           
Endicott       RAIN      72  72 100 CALM      30.03R                  
Ithaca         FAIR      87  70  56 S8        30.01F HX  92           
Hamilton       MOSUNNY   88  61  40 NW7       30.00F HX  88           
Hornell        PTSUNNY   82  70  65 SW7       30.05R HX  86           
Monticello     FAIR      87  67  51 VRB6      30.06F HX  90           
Norwich        MOSUNNY   88  61  40 CALM      30.00S HX  88           
Oneonta        SUNNY     82  66  57 W6        30.05F HX  85           
Penn Yan       PTSUNNY   86  69  56 SW3       29.98F HX  90           
Rome           FAIR      89  65  44 SW10      29.96F HX  91           
Seneca Falls   PTCLDY    84  68  58 SE8       29.96F HX  87           
Sidney         SUNNY     88  66  48 W8        30.01F HX  90           
Skaneateles    FAIR      75  72  88 CALM      29.99F                  
Syracuse       PTSUNNY   85  65  51 VRB5      29.97S HX  86           
$$
 

SKY/WX - Weather  TMP - Temperature  DP - Dew Point  RH - Relative Humidity
WIND - Wind Direction/Speed PRES - Barometric Pressure VSB - Visibility
WCI - Wind Chill Index E13G22 Wind - East Wind 13 mph/Gusts of 22 mph